Home   Weather   Bamako   Past weeks

Flag for Mali Past Weather in Bamako, Mali — Yesterday and Last 2 Weeks

Now
84 °F

Clear.


Feels Like: 81 °F
Forecast: 71 / 101 °F
Wind: 6 mph from Northeast

Location: Bamako / Senou

Current Time: Feb 25, 2017 at 2:31:18 am

Latest Report: Feb 25, 2017 at 2:00 am


Visibility: 5 mi

Pressure: 29.89 "Hg

Humidity: 15%

Dew Point: 32 °F

Location of BamakoLocation

Past Weather in Bamako — Graph

°F

Bamako Temperature Yesterday

Maximum temperature yesterday: 99 °F (at 2:30 pm)
Minimum temperature yesterday: 79 °F (at 2:00 am)
Average temperature yesterday: 89 °F

High & Low Weather Summary for the Past Weeks

 TemperatureHumidityPressure
High100 °F (Feb 12, 3:00 pm)53% (Feb 22, 4:00 am)30.01 "Hg (Feb 22, 4:00 am)
Low64 °F (Feb 21, 6:00 am)5% (Feb 10, 1:00 pm)29.74 "Hg (Feb 11, 4:00 pm)
Average86 °F16%29.89 "Hg
* Reported Feb 10 1:00 am — Feb 25 1:00 am, Bamako, Weather by CustomWeather, © 2017

Note: Actual official high and low records may vary slightly from our data, if they occured in-between our weather recording intervals... More about our weather records

Advertising

Bamako Weather History for the Previous 24 Hours

Scroll right to see more
 ConditionsComfort  
Time TempWeatherWind HumidityBarometerVisibility
1:00 am
Sat, Feb 25
88 °FClear.7 mph12%29.89 "Hg5 mi
12:30 am88 °FClear.7 mph12%29.89 "Hg5 mi
12:00 am86 °FClear.8 mph14%29.89 "Hg5 mi
11:30 pm
Fri, Feb 24
86 °FClear.6 mph13%29.89 "Hg5 mi
11:00 pm86 °FClear.7 mph14%29.89 "Hg5 mi
10:30 pm88 °FClear.5 mph13%29.89 "Hg5 mi
10:00 pm90 °FClear.7 mph11%29.89 "Hg5 mi
9:30 pm88 °FClear.8 mph13%29.86 "Hg5 mi
9:00 pm88 °FClear.8 mph15%29.86 "Hg5 mi
8:30 pm91 °FClear.7 mph13%29.86 "Hg5 mi
8:00 pm93 °FClear.7 mph13%29.83 "Hg5 mi
7:30 pm91 °FClear.7 mph15%29.83 "Hg5 mi
7:00 pm95 °FClear.6 mph14%29.83 "Hg5 mi
6:30 pm95 °FSunny.6 mph15%29.80 "Hg10 mi
6:00 pm97 °FPassing clouds.7 mph14%29.80 "HgN/A
5:30 pm99 °FSunny.3 mph16%29.80 "Hg10 mi
5:00 pm99 °FSunny.2 mph16%29.80 "Hg10 mi
4:30 pm99 °FPassing clouds.6 mph15%29.80 "HgN/A
4:00 pm99 °FPassing clouds.5 mph14%29.80 "HgN/A
3:30 pm99 °FClear.3 mph13%29.80 "Hg5 mi
3:00 pm99 °FClear.7 mph16%29.80 "Hg5 mi
2:30 pm99 °FClear.8 mph13%29.83 "Hg5 mi
2:00 pm97 °FClear.8 mph11%29.83 "Hg5 mi
1:30 pm97 °FClear.9 mph9%29.86 "Hg5 mi
1:00 pm97 °FClear.12 mph9%29.86 "Hg5 mi
12:30 pm95 °FClear.10 mph10%29.89 "Hg5 mi
12:00 pm93 °FClear.9 mph9%29.92 "Hg5 mi
11:30 am93 °FClear.12 mph8%29.92 "Hg5 mi
11:00 am90 °FClear.12 mph10%29.92 "Hg5 mi
10:30 am88 °FClear.14 mph10%29.92 "Hg4 mi
10:00 am84 °FClear.15 mph11%29.92 "Hg4 mi
9:30 am84 °FClear.14 mph11%29.92 "Hg5 mi
9:00 am84 °FClear.9 mph12%29.92 "Hg5 mi
8:30 am82 °FClear.12 mph13%29.92 "Hg5 mi
8:00 am81 °FClear.9 mph16%29.89 "Hg5 mi
7:30 am82 °FClear.12 mph14%29.89 "Hg5 mi
7:00 am82 °FClear.10 mph15%29.89 "Hg5 mi
6:30 am82 °FClear.8 mph15%29.86 "Hg5 mi
6:00 am82 °FClear.7 mph17%29.86 "Hg5 mi
5:30 am82 °FClear.8 mph16%29.86 "Hg5 mi
5:00 am84 °FClear.9 mph15%29.83 "Hg5 mi
4:30 am84 °FClear.13 mph16%29.83 "Hg5 mi
4:00 am84 °FClear.8 mph31%29.83 "Hg5 mi
3:30 am84 °FClear.3 mph33%29.83 "Hg5 mi
3:00 am84 °FClear.8 mph35%29.83 "Hg5 mi
2:30 am81 °FClear.1 mph45%29.86 "Hg5 mi
2:00 am79 °FClear.5 mph45%29.86 "Hg5 mi
Weather by CustomWeather, © 2017

See weather overviewHow to use our weather pages